Vorticity
nan nan nan nan nan nan nan nan nan nan nan nan nan nan nan nan nan nan nan nan nan nan nan nan nan nan nan nan nan nan nan nan nan nan nan nan nan nan nan nan nan nan nan nan nan nan nan nan nan nan nan nan nan nan
nan 10 10 9 9 9 9 9 9 9 8 8 9 10 10 11 14 14 11 10 12 10 10 13 13 13 9 2 4 10 11 10 11 10 12 11 11 9 11 9 10 11 8 11 9 8 11 9 7 13 12 13 14 nan
nan 8 9 9 9 10 9 9 9 9 9 8 8 9 10 12 14 12 11 12 11 11 11 11 15 16 20 16 5 3 11 12 11 9 11 11 11 10 10 10 10 13 11 11 13 8 5 10 12 12 14 15 17 nan
nan 7 7 8 10 11 13 12 10 8 9 9 9 8 11 13 12 12 13 9 9 10 12 9 7 11 15 24 18 -1 0 10 10 11 9 10 12 11 9 10 10 13 14 8 9 10 12 14 13 13 15 15 13 nan
nan 6 6 7 8 11 15 13 11 11 11 10 9 9 10 12 13 15 15 12 9 8 10 6 12 15 14 19 19 14 1 3 9 11 10 10 13 10 9 10 13 10 8 6 10 12 14 18 18 14 15 11 8 nan
nan 7 5 5 8 10 11 13 12 12 11 9 9 10 10 11 17 18 15 14 13 9 8 9 14 11 13 20 18 13 10 9 8 11 11 10 10 12 11 9 12 12 8 7 7 12 13 14 15 13 12 10 10 nan
nan 10 7 6 6 8 10 13 11 9 8 8 9 10 11 13 14 9 9 14 15 8 8 9 10 12 13 12 11 12 12 10 12 12 11 11 12 11 10 8 11 12 13 17 14 8 11 15 13 14 10 9 10 nan
nan 11 10 9 6 6 8 12 11 7 6 8 8 10 17 19 14 13 22 15 1 8 10 11 12 9 13 15 9 11 11 9 11 11 12 11 10 10 12 11 9 11 13 15 12 9 16 20 15 12 11 10 9 nan
nan 12 11 11 7 7 10 9 9 10 9 8 14 22 23 17 11 11 17 20 4 7 13 11 12 9 10 13 12 11 11 11 9 13 11 10 10 9 7 9 14 12 12 10 8 16 17 13 11 10 7 8 7 nan
nan 11 13 12 9 7 9 10 12 14 12 24 26 18 11 5 16 15 6 9 12 10 10 9 10 9 10 11 13 9 11 14 9 13 11 12 7 9 11 17 15 11 15 12 8 10 11 14 14 11 6 5 8 nan
nan 11 13 12 9 7 8 11 10 18 26 20 11 8 7 14 16 7 12 11 10 12 12 11 9 10 11 10 9 12 12 11 12 11 10 12 9 5 12 21 22 20 15 12 13 14 14 15 16 11 11 9 8 nan
nan 11 12 11 10 9 10 10 13 16 13 11 12 12 13 14 12 11 11 13 9 12 12 10 13 12 9 12 12 11 11 11 12 10 12 11 10 8 9 10 15 14 11 11 15 15 16 18 20 16 13 13 10 nan
nan 13 11 11 11 10 12 10 9 11 14 16 13 13 12 12 11 14 11 9 12 11 9 12 11 12 13 11 11 13 11 11 13 10 10 14 11 7 8 9 12 13 10 6 8 13 13 12 15 20 18 17 16 nan
nan 11 12 11 11 11 14 12 10 15 17 13 12 13 12 10 9 12 11 9 12 10 10 14 14 11 13 14 8 11 12 11 12 13 11 11 10 12 14 17 13 9 11 11 8 7 7 10 11 13 14 14 14 nan
nan 11 13 13 12 14 19 15 11 11 12 11 12 13 10 9 13 12 13 11 10 13 14 13 13 12 13 10 11 13 11 12 11 10 13 13 12 12 11 11 9 9 10 8 7 8 7 8 10 9 9 13 15 nan
nan 17 10 9 20 25 19 12 12 10 12 12 11 11 12 11 11 11 12 10 8 17 17 12 12 12 10 13 13 11 13 9 11 13 14 10 9 9 9 8 11 10 6 6 9 8 7 8 9 9 9 11 9 nan
nan 8 6 17 21 18 10 9 12 10 10 14 13 11 11 12 10 11 11 10 11 13 13 13 11 13 14 12 10 10 13 13 14 15 12 10 8 7 9 9 8 7 9 13 12 11 11 10 9 10 11 10 10 nan
nan 6 9 14 13 13 12 12 11 14 13 10 10 10 12 12 13 13 11 12 13 10 13 12 9 11 15 14 13 13 11 12 14 13 10 9 10 13 12 9 9 13 11 11 12 12 12 12 14 13 12 13 14 nan
nan 7 9 13 15 14 13 12 11 12 11 12 13 13 12 10 10 11 12 13 13 11 12 13 13 12 12 13 12 10 11 11 11 11 10 10 12 13 13 13 13 12 14 15 14 14 12 13 14 12 14 15 14 nan
nan 12 14 13 13 17 13 10 12 12 11 11 12 11 12 12 13 16 14 10 10 12 12 10 13 14 14 12 12 12 12 12 12 12 11 9 11 13 13 15 15 15 14 13 11 10 14 13 11 11 11 12 12 nan
nan 12 14 14 13 12 12 12 12 11 10 13 13 12 13 13 13 13 11 13 12 11 10 12 14 13 13 13 14 13 11 14 14 13 14 11 12 12 10 11 12 12 11 11 11 10 11 10 10 11 12 12 12 nan
nan 12 16 12 13 13 12 11 10 13 12 12 12 12 13 14 13 9 12 12 11 12 12 14 14 13 11 11 15 19 19 16 13 13 12 11 10 12 11 10 12 12 11 11 11 11 10 9 11 11 12 12 13 nan
nan 17 12 12 12 12 13 13 13 12 12 13 13 13 12 12 11 13 13 12 10 10 14 15 13 13 12 13 11 10 15 14 11 11 11 11 10 11 11 11 11 11 11 10 11 12 12 10 10 13 13 12 13 nan
nan 10 13 14 13 11 12 13 13 12 14 12 12 11 12 10 12 15 11 10 11 14 17 16 14 10 7 9 11 10 12 11 9 9 11 12 11 11 12 11 11 11 12 11 11 11 12 13 12 12 12 12 14 nan
nan 13 13 14 13 11 13 12 16 15 12 13 13 12 11 12 12 12 12 11 11 14 14 12 13 14 14 9 9 7 10 15 12 9 10 14 14 12 12 12 9 8 11 12 11 13 13 13 13 11 12 11 11 nan
nan 13 10 13 12 10 14 14 12 14 13 12 12 13 12 13 13 13 12 11 11 13 13 13 12 9 8 11 11 10 12 16 14 10 9 11 14 14 12 11 11 9 12 14 12 12 12 12 10 12 13 12 14 nan
nan 13 14 14 12 12 13 11 10 10 12 12 12 14 13 12 11 12 12 12 15 13 13 12 12 12 11 11 11 12 14 14 14 13 11 12 13 13 12 10 11 10 11 13 13 12 12 12 12 12 14 14 12 nan
nan 11 9 14 14 14 13 11 12 10 13 15 12 12 14 12 11 11 14 15 12 11 13 13 13 12 12 13 15 15 16 14 13 14 13 10 10 11 12 12 12 12 10 9 12 14 13 12 11 10 12 14 13 nan
nan 15 14 12 13 14 15 12 10 12 14 16 15 13 11 12 14 15 14 12 10 12 11 10 10 12 11 11 11 13 14 14 11 9 11 11 10 10 11 12 12 16 13 14 12 4 9 13 12 13 13 15 15 nan
nan 16 13 10 14 12 14 17 18 18 18 19 16 13 11 13 14 18 17 11 10 12 12 12 11 11 11 11 10 9 10 11 9 9 8 9 10 10 10 10 11 11 11 12 10 11 12 11 11 10 12 12 12 nan
nan 13 13 14 13 13 13 13 13 13 12 12 15 16 15 12 10 11 14 17 17 13 11 11 11 12 11 10 9 10 10 11 10 8 7 8 7 8 9 10 10 10 10 10 10 9 9 10 8 7 7 8 11 nan
nan 13 14 15 13 13 10 9 10 9 10 11 10 10 11 10 12 12 15 17 13 10 11 12 14 14 11 9 9 8 11 14 11 9 8 6 6 7 8 9 10 9 9 11 10 8 10 12 11 10 8 8 10 nan
nan nan nan nan nan nan nan nan nan nan nan nan nan nan nan nan nan nan nan nan nan nan nan nan nan nan nan nan nan nan nan nan nan nan nan nan nan nan nan nan nan nan nan nan nan nan nan nan nan nan nan nan nan nan
CAPE
1 1 2 2 3 4 4 2 2 2 4 3 1 1 4 9 7 3 1 0 0 0 0 0 0 0 0 0 13 0 126 167 236 340 601 199 176 9 13 34 112 311 264 188 0 181 146 0 0 126 254 0 0 2
0 0 0 0 0 1 1 2 4 5 5 1 2 4 9 9 6 0 1 0 0 0 0 0 0 0 0 0 0 0 28 75 18 132 39 45 153 1 4 222 0 56 38 288 228 350 8 4 109 4 0 47 0 0
1 3 0 0 0 0 0 0 2 4 4 1 2 5 6 15 7 7 1 2 1 1 0 0 0 0 0 0 0 0 6 3 28 48 35 75 204 0 202 106 27 5 2 477 371 311 204 55 0 0 0 5 0 0
0 2 0 0 0 0 0 0 0 1 7 7 7 5 7 17 10 7 8 0 3 1 0 0 0 0 0 0 0 0 0 0 0 30 194 351 296 0 0 7 21 19 89 320 410 265 145 66 10 0 0 0 0 0
10 6 1 3 0 0 6 0 0 0 11 9 7 5 5 5 3 3 2 2 0 0 0 0 0 0 0 0 0 0 0 0 0 0 23 98 0 0 0 0 0 3 489 462 211 358 589 506 79 0 0 0 0 0
15 16 12 3 6 1 15 13 9 15 15 9 4 2 1 3 1 2 0 2 3 5 0 0 0 0 0 0 0 0 0 0 0 0 0 0 0 0 0 0 0 0 0 4 128 1 15 7 0 0 0 0 0 0
23 21 18 14 3 2 8 11 17 14 17 8 1 0 0 0 6 0 0 0 0 0 0 0 0 0 0 0 0 0 0 0 0 0 0 0 0 0 0 2 39 82 43 56 0 17 99 0 4 0 0 0 0 0
17 26 27 22 15 2 3 6 10 9 11 2 0 0 0 0 1 1 0 0 0 0 0 0 0 0 0 0 0 0 0 0 0 0 0 0 0 0 0 12 0 0 47 107 19 0 44 24 0 0 0 0 0 0
33 31 34 26 21 3 6 3 3 8 5 0 0 1 1 1 0 0 2 0 1 0 0 0 0 0 0 0 0 0 0 0 0 0 0 0 0 1 19 0 0 62 294 226 2 5 0 0 0 0 0 0 0 0
37 56 29 29 21 10 2 3 7 6 0 0 1 1 0 0 0 2 0 0 0 0 0 0 0 0 0 0 0 2 0 2 4 0 0 0 0 20 171 28 64 0 0 63 222 290 95 4 0 0 0 0 0 0
41 37 31 23 24 13 2 2 7 1 0 0 1 0 0 0 0 0 0 0 0 0 0 0 0 0 0 0 11 0 31 0 98 32 4 10 174 310 13 0 0 1 2 9 15 21 23 33 21 0 0 0 0 0
45 45 31 31 26 7 3 6 2 0 0 0 1 1 4 0 0 0 0 0 0 0 0 0 0 0 0 0 111 93 198 54 321 363 406 538 710 193 183 225 290 349 218 100 82 16 6 14 6 0 0 0 0 0
53 39 27 21 30 25 5 4 1 0 0 4 9 8 1 0 5 18 7 2 0 0 0 0 2 0 0 0 52 246 170 142 8 311 447 855 489 260 230 322 201 195 53 27 25 5 6 6 3 0 0 0 0 0
56 47 35 29 26 23 16 1 0 0 1 5 3 1 1 2 5 17 2 0 0 0 0 0 0 0 0 11 81 191 136 155 148 182 234 600 177 129 41 38 162 58 25 5 5 11 6 3 1 0 0 0 0 0
66 49 36 27 16 25 15 0 0 0 4 4 13 13 2 1 1 3 0 0 0 0 0 23 16 0 1 50 32 42 57 49 110 258 290 118 33 67 51 16 14 11 8 2 4 1 3 4 1 5 0 0 0 0
39 29 19 34 24 8 0 0 0 1 5 7 2 30 9 7 2 7 13 25 8 2 15 3 1 7 7 8 60 49 45 65 111 94 125 73 57 41 20 5 12 9 5 6 10 10 9 4 0 0 0 0 0 1
14 0 16 12 0 0 0 0 4 6 6 1 4 0 0 13 2 5 42 1 16 51 37 11 21 19 0 25 24 7 58 22 5 69 187 142 20 8 2 1 3 59 143 112 59 63 26 5 0 0 0 30 0 0
3 10 1 3 0 0 0 3 3 5 0 0 2 6 15 4 13 55 0 2 31 3 6 10 0 25 40 39 50 17 6 4 2 45 119 59 49 0 1 0 0 0 0 0 0 0 0 0 0 12 11 21 33 63
5 0 0 0 0 2 8 5 4 3 3 0 0 1 35 20 0 0 24 0 28 2 1 5 24 55 76 52 52 19 2 0 26 15 1 0 0 3 20 18 3 0 0 0 0 0 0 2 0 0 0 5 22 52
2 0 0 0 0 2 3 4 3 0 1 0 0 1 0 0 0 0 2 0 0 27 39 30 16 26 89 88 85 74 24 0 10 12 14 20 5 15 0 0 0 0 0 0 9 0 7 16 14 5 0 1 5 15
0 0 0 0 0 1 4 4 0 0 0 3 0 0 0 0 0 2 4 0 0 1 9 1 16 14 16 15 13 14 11 24 46 39 38 48 4 4 0 0 0 0 0 0 1 4 1 4 3 0 0 10 12 18
0 0 9 1 2 4 1 0 9 11 11 5 21 0 15 38 4 0 0 33 15 3 10 51 19 21 51 25 17 3 8 0 0 0 0 0 0 0 0 0 0 0 0 0 0 0 0 1 1 0 1 4 2 18
0 1 17 1 2 0 1 0 39 23 55 35 34 39 16 9 0 0 9 22 24 18 0 12 16 59 67 69 39 4 0 0 0 0 0 0 0 0 0 0 0 0 0 0 0 0 0 0 0 0 1 1 4 6
0 4 4 1 0 7 13 39 27 31 17 36 71 29 20 62 1 45 54 66 62 25 64 47 92 67 35 7 2 5 1 0 0 0 0 0 0 0 0 0 0 6 0 0 0 0 0 0 0 2 3 3 7 2
0 0 0 0 0 0 21 30 46 67 77 69 28 66 102 3 83 80 60 73 37 18 9 2 0 0 0 0 0 0 0 0 0 0 0 0 0 0 0 0 0 5 2 2 0 0 2 6 5 1 3 1 2 8
1 0 0 5 41 51 62 55 51 66 9 47 8 0 4 76 60 83 82 73 27 11 4 0 0 0 0 0 0 0 0 0 0 0 0 0 0 0 0 0 1 0 6 5 7 3 1 0 4 2 1 2 2 9
14 10 0 0 0 3 45 32 1 10 2 16 43 11 8 4 30 49 26 11 9 6 0 0 0 0 0 0 0 0 0 0 0 0 0 0 0 1 1 3 5 4 4 3 4 1 2 3 3 3 3 7 9 10
5 0 8 22 8 0 1 0 0 1 11 3 13 9 0 1 16 16 10 7 2 0 0 0 0 0 0 0 0 0 0 0 0 0 0 0 0 0 0 1 2 0 2 2 3 0 1 3 7 1 3 6 6 5
32 13 10 21 5 5 12 5 4 12 18 33 2 4 12 10 23 15 9 1 0 0 0 0 0 0 0 0 0 0 0 0 0 0 0 0 0 0 0 0 0 1 3 5 0 0 3 3 3 6 3 5 5 5
46 12 8 0 0 8 40 25 9 5 6 2 1 5 4 6 1 0 6 6 0 0 0 0 0 0 0 0 0 0 0 0 0 0 0 0 0 0 0 0 0 0 0 0 0 0 0 0 0 2 4 6 10 10
25 16 1 2 42 17 11 9 6 3 0 0 0 0 0 1 0 0 0 0 0 0 0 0 0 0 0 0 0 0 0 0 0 0 0 0 0 0 0 0 0 0 0 0 0 0 0 0 2 3 4 6 8 8
11 17 27 11 40 55 43 34 33 21 20 15 6 0 0 0 0 4 0 0 0 0 0 0 0 0 0 0 0 0 0 0 0 0 0 0 0 0 0 0 0 0 0 0 0 0 0 1 3 4 6 6 8 7
12 40 49 65 50 32 41 25 20 13 14 6 3 2 0 0 0 0 0 0 0 0 0 0 0 0 0 0 0 0 0 0 0 0 0 0 0 0 0 0 0 0 0 0 0 0 0 0 0 0 1 2 2 2